星链-4021 (STARLINK-4021 )

导读 | 豆包AI

STARLINK-4021是美国SpaceX公司星链(Starlink)星座中的一颗低轨互联网卫星,于2022年7月17日发射升空。作为星链大规模组网的组成部分,它运行在近地轨道,旨在为全球提供高速低延迟互联网覆盖,填补偏远地区等传统网络难以覆盖区域的接入缺口。星链星座已部署数千颗卫星,虽推动了全球互联网普及,但也引发太空拥堵与天文观测干扰等争议,该卫星目前在轨参与星座服务运营。

基本信息
目录编号:
53149
目录名称:
STARLINK-4021
国际标识:
2022-083T
轨道中心:
EARTH
卫星名称:
星链-4021
卫星全名:
星链-4021 (STARLINK-4021 )
卫星状态:
在轨 (已飞行1383 天)
发射日期:
2022-07-17 UTC
国别 :
美国 (US)
星等 :
--
轨道信息
数据来源 国际轨道数据
星历时间: 2026-04-30T18:59:23+0800
9小时前
查看轨道信息
半长轴: 6917.893km
偏心率: 0.0001403
轨道倾角: 53.218°
近地点辐角 87.901°
升交点赤经 291.925°
平近点角 272.214°
近地点: 538.785km
远地点: 540.727km
周期: 95.438分钟
每日圈数: 15.08836
详细信息
固有亮度:
5
最大亮度:
2.5
卫星平台:
Starlink v1.5
覆盖范围:
全球
运营商:
太空探索技术公司
运营商所在国:
美国
制造商(研发单位):
太空探索技术公司
制造商所在国:
美国
使用方式:
暂无
卫星简介
星链(Starlink)计划是由太空探索技术公司(SpaceX)提出的一个巨型低轨卫星互联网星座项目,计划在2019年至2024年间在太空搭建由约1.2万颗卫星组成的“星链”网络,其中1584颗将部署在地球上空550千米处的近地轨道,并从2020年开始工作。该卫星仍在工作。
2D轨道图
3D轨道图
轨道高度分析图
轨道倾角分析图
轨道综合分析图
查看轨道综合分析图